Bloomington, IN

9:46 AM EDT on September 26, 2016 (GMT -0400)
Monroe County

Weather History for KBMG - January, 2014

Change the Weather History Date:

Saturday, January 18, 2014

  Actual Average Record
Temperature  
Mean Temperature 21 °F 29 °F  
Max Temperature 32 °F 38 °F 46 °F (2015)
Min Temperature 10 °F 20 °F 0 °F (1997)
Degree Days  
Heating Degree Days 44 36  
Month to date heating degree days 709 648  
Since 1 July heating degree days 2860 2721  
Cooling Degree Days 0 0  
Month to date cooling degree days 0 0  
Year to date cooling degree days 0 0  
Moisture  
Dew Point 18 °F    
Average Humidity 76    
Maximum Humidity 92    
Minimum Humidity 60    
Precipitation  
Precipitation 0.05 in 0.12 in 0.35 in (2011)
Month to date precipitation 2.27 2.24  
Year to date precipitation 2.27 2.24  
Sea Level Pressure  
Sea Level Pressure 29.86 in    
Wind  
Wind Speed 8 mph (SSW)    
Max Wind Speed 18 mph    
Max Gust Speed 25 mph    
Visibility 5 miles    
Events Snow    
T = Trace of Precipitation, MM = Missing Value Source: NWS Daily Summary

Daily Weather History Graph

Daily Weather History Graph

Search for Another Location

Airport or City:

Trip Planner

Search our weather history database for the weather conditions in past years. The results will help you decide how hot, cold, wet, or windy it might be!

Date:

Astronomy

Jan. 18, 2014 Rise Set
Actual Time 8:02 AM EST 5:51 PM EST
Civil Twilight 7:33 AM EST 6:20 PM EST
Nautical Twilight 7:01 AM EST 6:53 PM EST
Astronomical Twilight 6:29 AM EST 7:25 PM EST
Moon 8:31 PM EST (1/18) 9:03 AM EST (1/18)
Length of Visible Light 10h 46m
Length of Day
9h 48m
Waning Gibbous, 94% of the Moon is Illuminated
Jan 18
Waning Gibbous
Jan 24
Last Quarter
Jan 30
New
Feb 6
First Quarter
Feb 14
Full

Hourly Weather History & Observations

Time (EST) Temp. Windchill Dew Point Humidity Pressure Visibility Wind Dir Wind Speed Gust Speed Precip Events Conditions
12:53 AM 15.1 °F 7.7 °F 8.1 °F 74% 30.06 in 6.0 mi WSW 4.6 mph - 0.00 in Snow Light Snow
1:53 AM 15.1 °F 6.4 °F 9.0 °F 77% 30.06 in 5.0 mi WSW 5.8 mph - 0.00 in Snow Light Snow
2:25 AM 16.0 °F 6.3 °F 10.0 °F 77% 30.02 in 3.0 mi SW 6.9 mph - 0.00 in Snow Light Snow
2:53 AM 16.0 °F 6.3 °F 10.0 °F 77% 30.06 in 3.0 mi SW 6.9 mph - 0.00 in Snow Light Snow
3:53 AM 16.0 °F 7.4 °F 10.9 °F 81% 30.06 in 6.0 mi SW 5.8 mph - 0.00 in Snow Light Snow
4:16 AM 16.0 °F 7.4 °F 10.9 °F 81% 30.01 in 10.0 mi SW 5.8 mph - 0.00 in   Overcast
4:53 AM 16.0 °F 7.4 °F 10.9 °F 81% 30.04 in 9.0 mi SSW 5.8 mph - 0.00 in   Overcast
5:53 AM 16.0 °F 7.4 °F 10.0 °F 77% 30.05 in 10.0 mi WSW 5.8 mph - N/A   Overcast
6:45 AM 14.0 °F 5.1 °F 9.0 °F 80% 30.00 in 10.0 mi SW 5.8 mph - N/A   Partly Cloudy
6:53 AM 14.0 °F 3.9 °F 9.0 °F 80% 30.04 in 10.0 mi SSW 6.9 mph - N/A   Partly Cloudy
7:53 AM 12.9 °F 2.6 °F 9.0 °F 84% 30.04 in 10.0 mi SSW 6.9 mph - N/A   Clear
8:53 AM 12.9 °F 2.6 °F 8.1 °F 81% 30.03 in 9.0 mi South 6.9 mph - N/A   Clear
9:53 AM 17.1 °F 5.0 °F 10.9 °F 77% 30.01 in 10.0 mi South 10.4 mph - N/A   Partly Cloudy
10:53 AM 19.9 °F 7.9 °F 10.9 °F 68% 30.00 in 10.0 mi South 11.5 mph - N/A   Mostly Cloudy
11:53 AM 21.9 °F 11.7 °F 12.0 °F 66% 29.94 in 10.0 mi South 9.2 mph - N/A   Overcast
12:53 PM 23.0 °F 11.1 °F 12.0 °F 63% 29.88 in 10.0 mi South 12.7 mph 21.9 mph N/A   Overcast
1:53 PM 25.0 °F 13.6 °F 12.0 °F 58% 29.83 in 10.0 mi SE 12.7 mph - N/A   Overcast
2:53 PM 26.1 °F 13.6 °F 12.9 °F 58% 29.78 in 7.0 mi SE 16.1 mph 24.2 mph 0.00 in Snow Light Snow
3:53 PM 26.1 °F 15.6 °F 15.1 °F 63% 29.77 in 10.0 mi SSE 11.5 mph - 0.00 in   Overcast
4:34 PM 27.0 °F 15.2 °F 15.1 °F 61% 29.75 in 2.5 mi SSE 15.0 mph - 0.00 in Snow Light Snow
4:46 PM 27.0 °F 17.3 °F 17.1 °F 66% 29.75 in 1.8 mi South 10.4 mph - 0.00 in Snow Light Snow
4:53 PM 27.0 °F 16.7 °F 17.1 °F 66% 29.79 in 1.8 mi SSE 11.5 mph - 0.00 in Snow Light Snow
5:24 PM 26.1 °F 16.2 °F 21.0 °F 81% 29.76 in 0.5 mi South 10.4 mph - 0.00 in Snow Snow
5:48 PM 26.6 °F 19.1 °F 21.2 °F 80% 29.77 in 1.2 mi South 6.9 mph - 0.01 in Snow Light Snow
5:53 PM 26.1 °F 16.8 °F 21.9 °F 84% 29.80 in 1.2 mi South 9.2 mph - 0.01 in Snow Light Snow
5:59 PM 26.1 °F 17.6 °F 21.9 °F 84% 29.76 in 2.0 mi South 8.1 mph - 0.00 in Snow Light Snow
6:08 PM 27.0 °F 18.0 °F 21.9 °F 81% 29.76 in 6.0 mi South 9.2 mph - 0.00 in Snow Light Snow
6:53 PM 27.0 °F 18.7 °F 23.0 °F 85% 29.79 in 5.0 mi South 8.1 mph - 0.00 in Snow Light Snow
7:18 PM 27.0 °F 20.5 °F 24.1 °F 89% 29.76 in 5.0 mi South 5.8 mph - 0.01 in Snow Light Snow
7:53 PM 28.0 °F 20.0 °F 24.1 °F 85% 29.79 in 4.0 mi South 8.1 mph - 0.01 in Snow Light Snow
8:00 PM 28.0 °F 20.8 °F 24.1 °F 85% 29.75 in 1.8 mi South 6.9 mph - 0.00 in Snow Light Snow
8:16 PM 28.0 °F 20.0 °F 24.1 °F 85% 29.75 in 3.0 mi South 8.1 mph - 0.00 in Snow Light Snow
8:53 PM 28.9 °F 23.9 °F 25.0 °F 85% 29.78 in 10.0 mi SW 4.6 mph - 0.00 in   Overcast
9:28 PM 28.9 °F 22.8 °F 26.1 °F 89% 29.75 in 2.0 mi SSW 5.8 mph - 0.00 in Snow Light Snow
9:49 PM 28.4 °F 21.2 °F 26.6 °F 93% 29.75 in 3.0 mi SW 6.9 mph - 0.00 in Snow Light Snow
9:53 PM 30.0 °F 24.1 °F 26.1 °F 85% 29.77 in 3.0 mi SW 5.8 mph - 0.00 in Snow Light Snow
10:28 PM 30.9 °F 23.5 °F 27.0 °F 85% 29.75 in 2.5 mi SW 8.1 mph - 0.00 in Snow Light Snow
10:32 PM 30.9 °F 22.8 °F 27.0 °F 85% 29.75 in 1.5 mi SW 9.2 mph - 0.00 in Snow Light Snow
10:53 PM 30.9 °F 25.2 °F 28.9 °F 92% 29.77 in 1.5 mi WSW 5.8 mph - 0.01 in Snow Light Snow
11:07 PM 32.0 °F 25.6 °F 28.9 °F 88% 29.75 in 2.0 mi West 6.9 mph - 0.00 in Snow Light Snow
11:15 PM 32.0 °F 26.4 °F 28.9 °F 88% 29.76 in 1.2 mi WNW 5.8 mph - 0.00 in Snow Light Snow
11:28 PM 32.0 °F 26.4 °F 30.0 °F 92% 29.75 in 0.8 mi WSW 5.8 mph - 0.01 in Snow Light Snow
11:35 PM 32.0 °F 26.4 °F 30.0 °F 92% 29.75 in 1.0 mi WSW 5.8 mph - 0.02 in Snow Light Snow
11:53 PM 32.0 °F 26.4 °F 30.0 °F 92% 29.78 in 1.5 mi West 5.8 mph - 0.02 in Snow Light Snow